Weather History for Burnet, TX

Change the Weather History Date:

Tuesday, October 11, 2011

  Actual Average Record
Temperature  
Mean Temperature 70 °F -  
Max Temperature 82 °F 76 °F 87 °F (1999)
Min Temperature 57 °F 56 °F 52 °F (2000)
Cooling Degree Days 4    
Growing Degree Days 20 (Base 50)    
Moisture  
Dew Point 59 °F    
Average Humidity 70    
Maximum Humidity 90    
Minimum Humidity 45    
Precipitation  
Precipitation 0.00 in - - ()
Sea Level Pressure  
Sea Level Pressure 29.90 in    
Wind  
Wind Speed 2 mph (SE)    
Max Wind Speed 8 mph    
Max Gust Speed -    
Visibility 10 miles    
Events      
Averages and records for this station are not official NWS values.
T = Trace of Precipitation, MM = Missing Value Source: NWS Daily Summary

Daily Weather History Graph

Daily Weather History Graph

Search for Another Location

Airport:

Trip Planner

Search our weather history database for the weather conditions in past years. The results will help you decide how hot, cold, wet, or windy it might be!

Date:

Astronomy

Oct. 11, 2011 Rise Set
Actual Time 7:32 AM CDT 7:06 PM CDT
Civil Twilight 7:08 AM CDT 7:30 PM CDT
Nautical Twilight 6:40 AM CDT 7:58 PM CDT
Astronomical Twilight 6:12 AM CDT 8:26 PM CDT
Moon 6:43 PM CDT (10/11) 7:09 AM CDT (10/11)
Length of Visible Light 12h 22m
Length of Day
11h 33m
Full, 100% of the Moon is Illuminated
Oct 11
Full
Oct 11
Full
Oct 19
Last Quarter
Oct 26
New
Nov 2
First Quarter

Hourly Weather History & Observations

Time (CDT) Temp. Heat Index Dew Point Humidity Pressure Visibility Wind Dir Wind Speed Gust Speed Precip Events Conditions
12:53 AM 62.1 °F - 57.9 °F 86% 29.98 in 10.0 mi NNE 3.5 mph - N/A   Clear
1:53 AM 62.1 °F - 57.9 °F 86% 29.97 in 10.0 mi Calm Calm - N/A   Partly Cloudy
2:53 AM 61.0 °F - 57.0 °F 87% 29.97 in 10.0 mi Calm Calm - N/A   Scattered Clouds
3:53 AM 59.0 °F - 55.9 °F 90% 29.96 in 10.0 mi Calm Calm - N/A   Clear
4:53 AM 59.0 °F - 55.9 °F 90% 29.96 in 10.0 mi Calm Calm - N/A   Clear
5:53 AM 57.9 °F - 55.0 °F 90% 29.96 in 10.0 mi Calm Calm - N/A   Partly Cloudy
6:53 AM 59.0 °F - 55.9 °F 90% 29.96 in 10.0 mi Calm Calm - N/A   Clear
7:53 AM 59.0 °F - 55.0 °F 87% 29.96 in 10.0 mi Calm Calm - N/A   Clear
8:53 AM 63.0 °F - 59.0 °F 87% 29.96 in 10.0 mi Calm Calm - N/A   Clear
9:53 AM 69.1 °F - 60.1 °F 73% 29.97 in 10.0 mi Calm Calm - N/A   Partly Cloudy
10:53 AM 73.9 °F - 61.0 °F 64% 29.97 in 10.0 mi SSE 3.5 mph - N/A   Mostly Cloudy
11:53 AM 75.0 °F - 62.1 °F 64% 29.96 in 10.0 mi South 6.9 mph - N/A   Partly Cloudy
12:53 PM 78.1 °F - 62.1 °F 58% 29.93 in 10.0 mi SSE 6.9 mph - N/A   Partly Cloudy
1:53 PM 78.1 °F - 61.0 °F 56% 29.90 in 10.0 mi Calm Calm - N/A   Mostly Cloudy
2:53 PM 81.0 °F 81.3 °F 59.0 °F 47% 29.87 in 10.0 mi Variable 4.6 mph - N/A   Mostly Cloudy
3:53 PM 82.0 °F 82.1 °F 59.0 °F 45% 29.83 in 10.0 mi SE 5.8 mph - N/A   Partly Cloudy
4:53 PM 82.9 °F 83.2 °F 60.1 °F 46% 29.82 in 10.0 mi ESE 8.1 mph - N/A   Scattered Clouds
5:53 PM 82.0 °F 82.1 °F 59.0 °F 45% 29.81 in 10.0 mi South 5.8 mph - N/A   Clear
6:53 PM 79.0 °F - 60.1 °F 52% 29.81 in 10.0 mi SE 5.8 mph - N/A   Clear
7:53 PM 75.9 °F - 61.0 °F 60% 29.81 in 10.0 mi Calm Calm - N/A   Clear
8:53 PM 73.9 °F - 61.0 °F 64% 29.83 in 10.0 mi Calm Calm - N/A   Clear
9:53 PM 72.0 °F - 61.0 °F 68% 29.83 in 10.0 mi Calm Calm - N/A   Clear
10:53 PM 71.1 °F - 61.0 °F 70% 29.83 in 10.0 mi Calm Calm - N/A   Clear
11:53 PM 69.1 °F - 61.0 °F 75% 29.82 in 10.0 mi Calm Calm - N/A   Clear